STARLINK-37755, 69234

Orbit data source: Space-Track

STARLINK-37755, 69234 is a payload satellite owned by SpaceX/Seattle (US) in SSO that was launched on Tue, 26 May 2026 UTC via an FALCON 9 launch vehicle from the Air Force Western Test Range (AFWTR). Payload-class satellites include a variety of spacecraft equipped with specific instruments for various scientific and technological missions. These include communications satellites like Starlink; space stations such as the ISS; scientific satellites like the Hubble; Earth observation satellites from companies like Planet Labs, Umbra, and HawkEye 360; GPS; miniature CubeSats for education and research; and military/defense satellites.

Not visible in the next 10 days
Identifier
69234, 2026-115Z
Orbit
SSO
Country
Flag of USUS
Related business
Manufacturer
SpaceX/Seattle
Mission
Operational spacecraft
Bus & Motor
STARLINK V2MO, Unknown motor
Mass
575 kg wet, ~530 kg dry
Launch date (UTC)
2026-05-26 (4 weeks ago)
Launch vehicle
FALCON 9
Launch site
Air Force Western Test Range (AFWTR)
Object type
Payload
Rocket body
Debris
Shape & HBR
Unknown
Radar Cross Section
Large (>1 m²)

Expand to show TLE details & history
Last TLE update: 13 hours ago

TLE from 13 hours ago
0 STARLINK-37755
1 69234U 26115Z   26171.30821605  .00209054  00000-0  13658-2 0  9996
2 69234  97.2838 188.8888 0001986 104.0927 256.0559 15.75234563  5175
Epoch: 2026-06-20T07:23Z
TLE epoch observation values (Epoch: 2026-06-20T07:23:49.866Z)
Latitude
-0.00004°
Longitude
169.40633°
Altitude
347.454 km
Speed
7.7 km/s
True Right ascension
12h 35m 33s
True Declination
0° 00' 00"
Sunlit
Object was in daylight at epoch
Visualization orbit readout
Latitude
Unknown
Longitude
Unknown
Altitude
Unknown
Speed
Unknown
Apparent Right ascension
Unknown
Apparent Declination
Unknown
Sunlit
N/A
Visualization observer readout
Local Sidereal Time
07:16:17
Azimuth
Unknown
Elevation
Unknown
Doppler factor
Unknown
Orbital elements
Apogee altitude
342.185 km
Perigee altitude
339.517 km
Semi-major axis
6,718.988 km
Eccentricity
0.0002
Inclination
97.2838°
RAAN
188.8888°
Arg. of periapsis
104.0927°
True anomaly
256.03381°
Mean anomaly
256.0559°
Eccentric anomaly
256.04486°
Mean motion
3.94083 °/min
Orbital period
91.35 mins
BSTAR
0.0013658
Loading maneuver chart data...
Computing Atmospheric mass density...
Loading historical data...
Loading historical data...
Loading historical data...
Loading historical data...
Loading historical data...
Loading historical data...
Loading historical data...

Documentation

Showing up to 5 results
|